Le nostre stazioni meteo in Italia

Pubblicità
Il mio iltempo24.it
London/Heathrow Intl, Gran Bretagna (3772): Temperatura & dewpoint: 16.11.2019 07:00:00 - 22.11.2019 07:00:00 (GMT)London/Heathrow Intl, Gran Bretagna (3772): velocità del vento: 16.11.2019 07:00:00 - 22.11.2019 07:00:00 (GMT)London/Heathrow Intl, Gran Bretagna (3772): direzione del vento: 16.11.2019 07:00:00 - 22.11.2019 07:00:00 (GMT)London/Heathrow Intl, Gran Bretagna (3772): reduced air pressure: 16.11.2019 07:00:00 - 22.11.2019 07:00:00 (GMT)London/Heathrow Intl, Gran Bretagna (3772): visibility: 16.11.2019 07:00:00 - 22.11.2019 07:00:00 (GMT)London/Heathrow Intl, Gran Bretagna (3772): ore di luce: 16.11.2019 07:00:00 - 22.11.2019 07:00:00 (GMT)London/Heathrow Intl, Gran Bretagna (3772): precipitazioni: 16.11.2019 07:00:00 - 22.11.2019 07:00:00 (GMT)
Data & Tempo tt [°C] td [°C] ff [km/h] ff [kn] dd ppp [hPa] vv [km] sd [min] rr [mm]
22.11.2019 07:00:00 6,1 5,5 11 6 E 996,1 35 0 0,0
22.11.2019 06:00:00 6,9 6,0 15 8 SSE 996,1 10 0 0,8
22.11.2019 05:00:00 6,8 6,6 16 9 ESE 996,1 5 0 0,2
22.11.2019 04:00:00 5,6 5,1 13 7 SE 996,0 10 0 0,0
22.11.2019 03:00:00 7,5 7,0 13 7 SE 996,3 10 0 1,0
22.11.2019 02:00:00 7,2 6,9 11 6 E 996,4 5 0 1,6
22.11.2019 01:00:00 7,0 6,8 13 7 E 996,7 6 0 0,0
22.11.2019 00:00:00 6,6 6,3 13 7 E 997,2 5 - 0,0
21.11.2019 23:00:00 6,3 6,0 15 8 E 997,6 3,1 0 0,2
21.11.2019 22:00:00 5,8 5,4 16 9 E 998,4 3,3 0 0,2
21.11.2019 21:00:00 5,5 4,6 18 10 E 999,0 4,2 0 0,0
21.11.2019 20:00:00 5,6 4,2 21 11 E 999,5 6 0 0,0
21.11.2019 19:00:00 5,3 3,9 21 11 E 1000,0 4,9 0 0,0
21.11.2019 18:00:00 5,2 3,6 16 9 E 1000,4 5 0 0,0
21.11.2019 17:00:00 5,0 3,5 16 9 E 1000,9 6 0 0,0
21.11.2019 16:00:00 5,2 3,6 15 8 E 1001,3 7 0 0,0
21.11.2019 15:00:00 5,2 3,7 16 9 E 1001,8 5 0 0,0
21.11.2019 14:00:00 5,0 3,5 16 9 E 1002,2 5 0 0,0
21.11.2019 13:00:00 4,8 3,3 15 8 ENE 1002,6 6 0 0,0
21.11.2019 12:00:00 4,5 3,1 16 9 E 1003,5 5 0 0,0
21.11.2019 11:00:00 4,1 2,7 18 10 E 1004,1 5 0 0,0
21.11.2019 10:00:00 3,7 1,9 15 8 E 1004,7 7 0 0,0
21.11.2019 09:00:00 3,6 1,9 15 8 E 1005,3 7 0 0,0
21.11.2019 08:00:00 3,8 2,3 16 9 E 1005,5 6 0 0,0
21.11.2019 07:00:00 4,0 2,4 15 8 E 1005,5 6 0 0,0
21.11.2019 06:00:00 3,9 2,6 13 7 E 1005,8 5 0 0,0
21.11.2019 05:00:00 4,1 2,5 15 8 E 1006,1 7 0 0,0
21.11.2019 04:00:00 4,1 2,4 15 8 E 1006,3 8 0 0,0
21.11.2019 03:00:00 4,1 2,2 13 7 E 1006,7 9 0 0,0
21.11.2019 02:00:00 4,2 2,0 9 5 E 1007,0 13 0 0,0
21.11.2019 01:00:00 4,2 1,9 13 7 E 1007,2 10 0 0,0
21.11.2019 00:00:00 3,8 1,9 11 6 E 1007,9 10 - 0,0
20.11.2019 23:00:00 2,7 1,1 11 6 E 1008,2 10 0 0,0
20.11.2019 22:00:00 2,8 1,3 15 8 E 1008,8 10 0 0,0
20.11.2019 21:00:00 2,9 1,3 13 7 E 1009,1 10 0 0,0
20.11.2019 20:00:00 3,2 1,1 13 7 E 1009,3 17 0 0,0
20.11.2019 19:00:00 3,4 0,8 13 7 E 1009,5 10 0 0,0
20.11.2019 18:00:00 3,3 0,1 13 7 E 1009,6 26 0 0,0
20.11.2019 17:00:00 3,9 0,0 15 8 E 1009,6 35 0 0,0
20.11.2019 16:00:00 5,1 -0,6 16 9 ESE 1010,0 10 0 0,0
20.11.2019 15:00:00 6,0 -0,1 21 11 ESE 1010,1 10 0 0,0
20.11.2019 14:00:00 7,2 0,1 21 11 ESE 1010,7 10 6 0,0
20.11.2019 13:00:00 7,5 0,9 21 11 SE 1011,8 10 42 0,0
20.11.2019 12:00:00 7,4 2,3 22 12 SE 1012,7 35 0 0,0
20.11.2019 11:00:00 7,4 1,9 21 11 SE 1013,4 35 0 0,0
20.11.2019 10:00:00 6,6 2,1 15 8 ESE 1013,8 30 0 0,0
20.11.2019 09:00:00 5,5 2,2 11 6 ESE 1014,2 10 0 0,0
20.11.2019 08:00:00 4,2 2,2 11 6 ESE 1014,1 10 0 0,0
20.11.2019 07:00:00 4,8 1,6 15 8 SE 1013,8 35 0 0,0
20.11.2019 06:00:00 5,2 2,4 16 9 SE 1013,7 10 0 0,0
20.11.2019 05:00:00 4,0 2,3 16 9 SE 1013,9 35 0 0,0
20.11.2019 04:00:00 3,0 2,2 11 6 SE 1014,3 10 0 0,0
20.11.2019 03:00:00 3,5 1,7 9 5 SE 1014,6 10 0 0,0
20.11.2019 02:00:00 5,9 3,0 13 7 SSE 1014,7 10 0 0,0
20.11.2019 01:00:00 5,3 3,0 15 8 SSE 1014,9 30 0 0,0
20.11.2019 00:00:00 3,5 2,9 5 3 SSE 1015,4 10 - 0,0
19.11.2019 23:00:00 3,0 1,6 9 5 SE 1015,8 17 0 0,0
19.11.2019 22:00:00 4,2 2,3 9 5 SE 1015,8 10 0 0,0
19.11.2019 21:00:00 4,4 2,8 9 5 E 1016,0 10 0 0,0
19.11.2019 20:00:00 3,7 2,4 11 6 ESE 1016,0 10 0 0,0
19.11.2019 19:00:00 4,1 2,7 5 3 E 1016,2 10 0 0,0
19.11.2019 18:00:00 5,1 3,1 11 6 E 1015,9 20 0 0,0
19.11.2019 17:00:00 5,7 3,5 5 3 E 1016,0 10 0 0,0
19.11.2019 16:00:00 6,0 3,4 8 4 E 1016,0 22 0 0,0
19.11.2019 15:00:00 7,0 3,4 8 4 ESE 1016,2 10 0 0,0
19.11.2019 14:00:00 6,5 3,0 9 5 SE 1016,2 23 0 0,0
19.11.2019 13:00:00 5,9 2,7 8 4 - 1016,7 10 0 0,0
19.11.2019 12:00:00 4,9 2,6 5 3 - 1016,8 10 0 0,0
19.11.2019 11:00:00 3,2 2,1 8 4 S 1017,6 10 0 0,0
19.11.2019 10:00:00 1,3 1,2 4 2 - 1017,7 5 0 0,0
19.11.2019 09:00:00 0,4 0,4 4 2 - 1017,9 3,9 0 0,0
19.11.2019 08:00:00 -1,1 -1,2 5 3 NE 1017,6 2,5 0 0,0
19.11.2019 07:00:00 -1,2 -1,3 2 1 - 1017,2 0,3 0 0,0
19.11.2019 06:00:00 -1,4 -1,5 4 2 - 1017,0 0,6 0 0,0
19.11.2019 05:00:00 -1,0 -1,2 4 2 - 1017,2 0,1 0 0,0
19.11.2019 04:00:00 -1,9 -2,4 5 3 O 1017,5 0,1 0 0,0
19.11.2019 03:00:00 -0,7 -1,0 2 1 O 1017,5 3,5 0 0,0
19.11.2019 02:00:00 0,1 -0,2 0 0 N 1017,6 3,0 0 0,0
19.11.2019 01:00:00 0,5 0,1 2 1 - 1017,6 2,9 0 0,0
19.11.2019 00:00:00 1,1 0,6 2 1 NO 1017,7 10 - 0,0
18.11.2019 23:00:00 1,4 0,4 4 2 NNO 1017,8 14 0 0,0
18.11.2019 22:00:00 2,6 0,9 5 3 ONO 1017,8 10 0 0,0
18.11.2019 21:00:00 3,2 1,2 8 4 ONO 1018,0 10 0 0,0
18.11.2019 20:00:00 3,7 1,0 5 3 ONO 1017,6 22 0 0,0
18.11.2019 19:00:00 4,3 1,3 4 2 - 1017,3 10 0 0,0
18.11.2019 18:00:00 4,7 1,8 5 3 NO 1017,1 10 0 0,0
18.11.2019 17:00:00 5,9 2,3 5 3 - 1016,8 10 0 0,0
18.11.2019 16:00:00 7,5 2,3 9 5 N 1016,6 10 12 0,0
18.11.2019 15:00:00 8,4 2,5 9 5 N 1016,2 10 30 0,0
18.11.2019 14:00:00 8,5 2,7 9 5 N 1016,1 10 18 0,0
18.11.2019 13:00:00 8,7 3,7 13 7 NNO 1015,8 35 12 0,0
18.11.2019 12:00:00 8,3 3,8 11 6 N 1015,4 10 36 0,0
18.11.2019 11:00:00 7,7 3,7 13 7 NNO 1015,9 30 60 0,0
18.11.2019 10:00:00 7,0 4,0 11 6 NNO 1016,2 10 60 0,0
18.11.2019 09:00:00 5,9 4,4 9 5 ONO 1016,1 10 6 0,0
18.11.2019 08:00:00 4,7 3,8 5 3 - 1015,8 10 0 0,0
18.11.2019 07:00:00 4,4 3,5 9 5 NO 1015,5 10 0 0,0
18.11.2019 06:00:00 4,6 3,1 9 5 NO 1015,1 10 0 0,0
18.11.2019 05:00:00 5,9 3,5 9 5 NO 1014,7 10 0 0,0
18.11.2019 04:00:00 7,0 4,0 13 7 N 1014,3 10 0 0,0
18.11.2019 03:00:00 7,5 4,8 15 8 N 1014,2 10 0 0,0
18.11.2019 02:00:00 7,1 5,4 13 7 N 1013,8 30 0 0,0
18.11.2019 01:00:00 7,3 6,1 11 6 N 1013,6 10 0 0,0
18.11.2019 00:00:00 6,9 6,3 5 3 - 1013,8 2,0 - 0,0
17.11.2019 23:00:00 6,5 5,6 4 2 NE 1013,4 6 0 0,0
17.11.2019 22:00:00 6,1 5,1 4 2 - 1013,1 4,1 0 0,0
17.11.2019 21:00:00 6,0 4,9 5 3 - 1013,2 5 0 0,0
17.11.2019 20:00:00 6,1 5,0 4 2 - 1013,3 5 0 0,0
17.11.2019 19:00:00 5,5 4,3 4 2 N 1012,9 7 0 0,0
17.11.2019 18:00:00 5,7 3,3 5 3 N 1012,5 8 0 0,0
17.11.2019 17:00:00 6,9 3,3 4 2 - 1012,2 10 0 0,0
17.11.2019 16:00:00 7,6 3,2 2 1 - 1011,9 10 0 0,0
17.11.2019 15:00:00 8,3 3,1 8 4 N 1011,9 10 6 0,0
17.11.2019 14:00:00 8,6 2,5 5 3 NE 1011,5 10 6 0,0
17.11.2019 13:00:00 8,2 2,2 4 2 NE 1011,3 21 36 0,0
17.11.2019 12:00:00 7,5 3,2 5 3 - 1011,1 10 60 0,0
17.11.2019 11:00:00 5,7 5,0 5 3 - 1011,1 7 12 0,0
17.11.2019 10:00:00 4,1 3,9 2 1 - 1011,3 4,1 0 0,0
17.11.2019 09:00:00 2,6 2,5 2 1 - 1011,2 3,0 0 0,0
17.11.2019 08:00:00 2,4 2,3 2 1 - 1010,8 0,4 0 0,0
17.11.2019 07:00:00 2,5 2,3 5 3 - 1010,2 0,1 0 0,0
17.11.2019 06:00:00 1,8 1,4 0 0 N 1009,7 3,5 0 0,0
17.11.2019 05:00:00 2,5 2,3 2 1 NNO 1009,3 3,0 0 0,0
17.11.2019 04:00:00 2,7 2,5 2 1 O 1009,2 4,0 0 0,0
17.11.2019 03:00:00 2,5 2,2 2 1 ESE 1009,3 5 0 0,0
17.11.2019 02:00:00 2,7 2,2 0 0 N 1009,4 4,0 0 0,0
17.11.2019 01:00:00 3,4 2,7 0 0 N 1009,3 3,9 0 0,0
17.11.2019 00:00:00 3,9 3,1 2 1 - 1008,9 5 - 0,0
16.11.2019 23:00:00 5,3 3,5 4 2 SO 1008,8 8 0 0,0
16.11.2019 22:00:00 6,3 3,7 8 4 SO 1008,7 8 0 0,0
16.11.2019 21:00:00 5,9 3,2 9 5 OSO 1008,8 10 0 0,0
16.11.2019 20:00:00 6,8 3,6 9 5 OSO 1008,3 10 0 0,0
16.11.2019 19:00:00 7,0 3,8 8 4 SO 1008,1 18 0 0,0
16.11.2019 18:00:00 7,1 3,6 5 3 - 1007,9 10 0 0,0
16.11.2019 17:00:00 7,2 3,4 5 3 S 1007,7 19 0 0,0
16.11.2019 16:00:00 7,4 3,3 5 3 - 1007,4 10 0 0,0
16.11.2019 15:00:00 7,5 3,0 4 2 NO 1007,3 10 0 0,0
16.11.2019 14:00:00 7,5 2,9 4 2 NNE 1006,7 23 0 0,0
16.11.2019 13:00:00 7,8 3,4 4 2 - 1006,6 10 42 0,0
16.11.2019 12:00:00 7,1 4,3 5 3 - 1006,6 10 0 0,0
16.11.2019 11:00:00 6,9 4,1 5 3 - 1006,5 10 0 0,0
16.11.2019 10:00:00 5,9 4,4 8 4 N 1006,5 7 0 0,0
16.11.2019 09:00:00 5,3 4,1 5 3 - 1006,2 7 0 0,0
16.11.2019 08:00:00 5,2 4,2 4 2 - 1005,9 8 0 0,0
16.11.2019 07:00:00 4,9 3,6 5 3 ENE 1005,3 13 0 0,0

tt = Temperatura
td = dewpoint
ff = velocità del vento
dd = direzione del vento
ppp = reduced air pressure
vv = visibility
sd = ore di luce
rr = precipitazioni

Stazioni seguenti

WeatherPro
AMSI
MeteoEarth